• In Hungary
  • List of Countries
  • For 7 days
  • Water Temperature
  • Satellite Maps
  • Weather Map
  • News
  • Weather Widgets
  • user-avatar
    Login

    Hourly Weather Naslawice

    Today, 21 October, Sunday

    Time Temperature Precipitation Wind Pressure Humidity
    00:00 +7°C° 0.3 mm 3 mps 756 mmHg 78%
    01:00 +7°C° 0.3 mm 3 mps 756 mmHg 80%
    02:00 +7°C° 0.3 mm 2 mps 756 mmHg 83%
    03:00 +7°C° 0.3 mm 2 mps 756 mmHg 86%
    04:00 +7°C° 0.3 mm 2 mps 756 mmHg 88%
    05:00 +7°C° 0 mm 2 mps 756 mmHg 90%
    06:00 +7°C° 0 mm 2 mps 756 mmHg 91%
    07:00 +7°C° 0 mm 1 mps 756 mmHg 92%
    08:00 +8°C° 0 mm 2 mps 757 mmHg 87%
    09:00 +9°C° 0 mm 2 mps 757 mmHg 82%
    10:00 +10°C° 0 mm 2 mps 757 mmHg 77%
    11:00 +12°C° 0 mm 1 mps 757 mmHg 72%
    12:00 +12°C° 0 mm 1 mps 757 mmHg 68%
    13:00 +13°C° 0 mm 1 mps 757 mmHg 64%
    14:00 +13°C° 0 mm 1 mps 757 mmHg 66%
    15:00 +13°C° 0 mm 1 mps 756 mmHg 67%
    16:00 +12°C° 0 mm 1 mps 756 mmHg 68%
    17:00 +11°C° 0 mm 1 mps 756 mmHg 73%
    18:00 +10°C° 0 mm 1 mps 756 mmHg 77%
    19:00 +9°C° 0 mm 1 mps 757 mmHg 82%
    20:00 +8°C° 0 mm 1 mps 757 mmHg 83%
    21:00 +8°C° 0 mm 1 mps 757 mmHg 84%
    22:00 +8°C° 0 mm 1 mps 757 mmHg 85%
    23:00 +8°C° 0 mm 1 mps 756 mmHg 85%

    Tomorrow, 22 October, Monday

    Time Temperature Precipitation Wind Pressure Humidity
    00:00 +7°C° 0 mm 1 mps 756 mmHg 86%
    01:00 +7°C° 0 mm 1 mps 756 mmHg 86%
    02:00 +7°C° 0 mm 1 mps 756 mmHg 87%
    03:00 +7°C° 0 mm 1 mps 756 mmHg 87%
    04:00 +6°C° 0 mm 1 mps 756 mmHg 87%
    05:00 +6°C° 0 mm 1 mps 756 mmHg 87%
    06:00 +6°C° 0 mm 1 mps 756 mmHg 86%
    07:00 +6°C° 0 mm 1 mps 756 mmHg 86%
    08:00 +8°C° 0 mm 1 mps 756 mmHg 78%
    09:00 +10°C° 0 mm 1 mps 756 mmHg 70%
    10:00 +12°C° 0 mm 1 mps 756 mmHg 62%
    11:00 +13°C° 0 mm 1 mps 755 mmHg 58%
    12:00 +14°C° 0 mm 2 mps 755 mmHg 53%
    13:00 +15°C° 0 mm 2 mps 754 mmHg 49%
    14:00 +15°C° 0 mm 2 mps 754 mmHg 52%
    15:00 +14°C° 0 mm 2 mps 754 mmHg 56%
    16:00 +14°C° 0 mm 2 mps 754 mmHg 59%
    17:00 +12°C° 0.1 mm 3 mps 754 mmHg 66%
    18:00 +11°C° 0.1 mm 3 mps 754 mmHg 74%
    19:00 +10°C° 0.1 mm 4 mps 755 mmHg 81%
    20:00 +8°C° 0.1 mm 4 mps 755 mmHg 82%
    21:00 +8°C° 0.1 mm 4 mps 755 mmHg 82%
    22:00 +8°C° 0.1 mm 5 mps 756 mmHg 82%
    23:00 +7°C° 0 mm 4 mps 756 mmHg 85%

    Day after tomorrow, 23 October, Tuesday

    Time Temperature Precipitation Wind Pressure Humidity
    00:00 +6°C° 0 mm 4 mps 756 mmHg 88%
    01:00 +5°C° 0 mm 3 mps 756 mmHg 91%
    02:00 +4°C° 0 mm 3 mps 756 mmHg 91%
    03:00 +4°C° 0 mm 3 mps 756 mmHg 92%
    04:00 +3°C° 0 mm 3 mps 756 mmHg 92%
    05:00 +3°C° 0 mm 3 mps 755 mmHg 91%
    06:00 +3°C° 0 mm 3 mps 755 mmHg 89%
    07:00 +3°C° 0 mm 3 mps 755 mmHg 88%
    08:00 +5°C° 0 mm 4 mps 754 mmHg 80%
    09:00 +6°C° 0 mm 5 mps 754 mmHg 72%
    10:00 +8°C° 0 mm 6 mps 753 mmHg 64%
    11:00 +8°C° 0.1 mm 6 mps 752 mmHg 63%
    12:00 +8°C° 0.1 mm 7 mps 751 mmHg 62%
    13:00 +9°C° 0.1 mm 7 mps 750 mmHg 60%
    14:00 +7°C° 0.4 mm 8 mps 749 mmHg 63%
    15:00 +7°C° 0.4 mm 8 mps 748 mmHg 66%
    16:00 +7°C° 0.4 mm 8 mps 747 mmHg 69%
    17:00 +7°C° 0.7 mm 9 mps 746 mmHg 71%
    18:00 +7°C° 0.7 mm 10 mps 745 mmHg 73%
    19:00 +7°C° 0.7 mm 10 mps 744 mmHg 76%
    20:00 +8°C° 0.3 mm 11 mps 743 mmHg 76%
    21:00 +9°C° 0.3 mm 11 mps 742 mmHg 77%
    22:00 +9°C° 0.3 mm 11 mps 741 mmHg 77%
    23:00 +9°C° 0.6 mm 11 mps 741 mmHg 77%

    24 October, Wednesday

    Time Temperature Precipitation Wind Pressure Humidity
    00:00 +9°C° 0.6 mm 11 mps 741 mmHg 76%
    01:00 +11°C° 0.6 mm 11 mps 741 mmHg 76%
    02:00 +9°C° 0.4 mm 10 mps 741 mmHg 75%
    03:00 +8°C° 0.4 mm 10 mps 741 mmHg 74%
    04:00 +8°C° 0.4 mm 10 mps 741 mmHg 74%
    05:00 +7°C° 0 mm 10 mps 741 mmHg 72%
    06:00 +6°C° 0 mm 9 mps 742 mmHg 70%
    07:00 +5°C° 0 mm 9 mps 743 mmHg 68%
    08:00 +5°C° 0.1 mm 9 mps 743 mmHg 66%
    09:00 +5°C° 0.1 mm 9 mps 744 mmHg 63%
    10:00 +6°C° 0.1 mm 9 mps 744 mmHg 60%
    11:00 +6°C° 0.2 mm 9 mps 744 mmHg 58%
    12:00 +6°C° 0.2 mm 9 mps 744 mmHg 56%
    13:00 +6°C° 0.2 mm 9 mps 744 mmHg 54%
    14:00 +6°C° 0.1 mm 9 mps 745 mmHg 55%
    15:00 +6°C° 0.1 mm 8 mps 745 mmHg 56%
    16:00 +6°C° 0.1 mm 8 mps 745 mmHg 57%
    17:00 +5°C° 0 mm 7 mps 746 mmHg 60%
    18:00 +4°C° 0 mm 6 mps 747 mmHg 62%
    19:00 +4°C° 0 mm 6 mps 747 mmHg 65%
    20:00 +5°C° 0 mm 5 mps 748 mmHg 66%
    21:00 +3°C° 0 mm 5 mps 748 mmHg 67%
    22:00 +3°C° 0 mm 5 mps 748 mmHg 68%
    23:00 +3°C° 0 mm 5 mps 749 mmHg 69%

    25 October, Thursday

    Time Temperature Precipitation Wind Pressure Humidity
    00:00 +2°C° 0 mm 5 mps 749 mmHg 70%
    01:00 +2°C° 0 mm 5 mps 749 mmHg 71%
    02:00 +2°C° 0 mm 5 mps 749 mmHg 74%
    03:00 +2°C° 0 mm 5 mps 749 mmHg 77%
    04:00 +2°C° 0 mm 5 mps 749 mmHg 79%
    05:00 +2°C° 0 mm 5 mps 749 mmHg 80%
    06:00 +3°C° 0 mm 5 mps 748 mmHg 80%
    07:00 +5°C° 0 mm 5 mps 748 mmHg 81%
    08:00 +5°C° 0.2 mm 5 mps 748 mmHg 82%
    09:00 +6°C° 0.2 mm 5 mps 747 mmHg 83%
    10:00 +7°C° 0.2 mm 6 mps 747 mmHg 84%
    11:00 +9°C° 0.1 mm 6 mps 746 mmHg 82%
    12:00 +10°C° 0.1 mm 7 mps 746 mmHg 80%
    13:00 +11°C° 0.1 mm 8 mps 745 mmHg 78%
    14:00 +11°C° 0.1 mm 7 mps 745 mmHg 78%
    15:00 +11°C° 0.1 mm 7 mps 744 mmHg 78%
    16:00 +11°C° 0.1 mm 7 mps 744 mmHg 78%
    17:00 +11°C° 0.1 mm 7 mps 744 mmHg 79%
    18:00 +10°C° 0.1 mm 6 mps 744 mmHg 79%
    19:00 +10°C° 0.1 mm 6 mps 744 mmHg 80%
    20:00 +10°C° 0 mm 6 mps 744 mmHg 80%
    21:00 +9°C° 0 mm 6 mps 744 mmHg 80%
    22:00 +9°C° 0 mm 6 mps 744 mmHg 80%
    23:00 +8°C° 0 mm 6 mps 744 mmHg 82%

    26 October, Friday

    Time Temperature Precipitation Wind Pressure Humidity
    00:00 +8°C° 0 mm 6 mps 744 mmHg 83%
    01:00 +8°C° 0 mm 6 mps 744 mmHg 84%
    02:00 +7°C° 0 mm 5 mps 744 mmHg 85%
    03:00 +7°C° 0 mm 5 mps 744 mmHg 86%
    04:00 +7°C° 0 mm 5 mps 744 mmHg 87%
    05:00 +7°C° 0 mm 5 mps 744 mmHg 87%
    06:00 +7°C° 0 mm 4 mps 744 mmHg 87%
    07:00 +7°C° 0 mm 4 mps 744 mmHg 87%
    08:00 +8°C° 0 mm 4 mps 744 mmHg 82%
    09:00 +10°C° 0 mm 4 mps 744 mmHg 77%
    10:00 +10°C° 0 mm 5 mps 744 mmHg 71%
    11:00 +10°C° 0 mm 5 mps 743 mmHg 67%
    12:00 +12°C° 0 mm 5 mps 743 mmHg 64%
    13:00 +13°C° 0 mm 5 mps 742 mmHg 60%
    14:00 +12°C° 0 mm 4 mps 742 mmHg 62%
    15:00 +12°C° 0 mm 4 mps 742 mmHg 64%
    16:00 +11°C° 0 mm 3 mps 741 mmHg 66%
    17:00 +11°C° 0 mm 3 mps 741 mmHg 69%
    18:00 +10°C° 0 mm 3 mps 741 mmHg 72%
    19:00 +10°C° 0 mm 3 mps 741 mmHg 75%
    20:00 +9°C° 0.1 mm 3 mps 740 mmHg 77%
    21:00 +9°C° 0.1 mm 3 mps 740 mmHg 79%
    22:00 +9°C° 0.1 mm 3 mps 740 mmHg 82%
    23:00 +9°C° 0.1 mm 3 mps 739 mmHg 83%
    Show more